Location: Shenandoah County Park
(38.9356°N, 78.4524°W)
Time: 07:04:53
(UTC-05:00)

Envisat - Pass Details

Date: 04 October 2023
Orbit: 762 x 764 km, 98.3° (Epoch: 30 November)

Event Time Altitude Azimuth Distance (km) Brightness Sun altitude
Rises 06:30:24 0° 350° (N) 3,238 6.2 -9.0°
Reaches altitude 10° 06:34:22 10° 319° (NW) 2,306 5.1 -8.2°
Maximum altitude 06:36:01 12° 300° (WNW) 2,194 4.9 -7.9°
Drops below altitude 10° 06:37:40 10° 280° (W) 2,301 4.8 -7.6°
Enters shadow 06:38:16 - 274° (W) 2,389 4.9 -7.5°
